Time,TemperatureF,DewpointF,PressureIn,WindDirection,WindDirectionDegrees,WindSpeedMPH,WindSpeedGustMPH,Humidity,HourlyPrecipIn,Conditions,Clouds,dailyrainin,SoftwareType,DateUTC
2013-10-28 00:04:00,-999.0,-99.9,-100.00,North,360,13.0,17.0,-999,-99.99,,,-99.99,,2013-10-28 05:04:00,
2013-10-28 00:13:00,-999.0,-99.9,-100.00,North,360,10.0,14.0,-999,-99.99,,,-99.99,,2013-10-28 05:13:00,
2013-10-28 00:22:00,-999.0,-99.9,-100.00,North,360,10.0,14.0,-999,-99.99,,,-99.99,,2013-10-28 05:22:00,
2013-10-28 00:30:00,-999.0,-99.9,-100.00,NNE,30,14.0,22.0,-999,-99.99,,,-99.99,,2013-10-28 05:30:00,
2013-10-28 00:34:00,-999.0,-99.9,-100.00,North,360,10.0,14.0,-999,-99.99,,,-99.99,,2013-10-28 05:34:00,
2013-10-28 00:43:00,-999.0,-99.9,-100.00,NNW,340,16.0,23.0,-999,-99.99,,,-99.99,,2013-10-28 05:43:00,
2013-10-28 00:53:00,-999.0,-99.9,-100.00,NNW,340,16.0,23.0,-999,-99.99,,,-99.99,,2013-10-28 05:53:00,
2013-10-28 01:00:00,-999.0,-99.9,-100.00,North,360,18.0,24.0,-999,-99.99,,,-99.99,,2013-10-28 06:00:00,
2013-10-28 01:03:00,-999.0,-99.9,-100.00,NNW,340,16.0,23.0,-999,-99.99,,,-99.99,,2013-10-28 06:03:00,
2013-10-28 01:13:00,-999.0,-99.9,-100.00,NNE,30,14.0,22.0,-999,-99.99,,,-99.99,,2013-10-28 06:13:00,
2013-10-28 01:22:00,-999.0,-99.9,-100.00,NNE,30,14.0,22.0,-999,-99.99,,,-99.99,,2013-10-28 06:22:00,
2013-10-28 01:43:00,-999.0,-99.9,-100.00,North,360,18.0,24.0,-999,-99.99,,,-99.99,,2013-10-28 06:43:00,
2013-10-28 01:52:00,-999.0,-99.9,-100.00,North,360,18.0,24.0,-999,-99.99,,,-99.99,,2013-10-28 06:52:00,
2013-10-28 02:00:00,-999.0,-99.9,-100.00,NNE,20,23.0,30.0,-999,-99.99,,,-99.99,,2013-10-28 07:00:00,
2013-10-28 02:12:00,-999.0,-99.9,-100.00,North,10,16.0,22.0,-999,-99.99,,,-99.99,,2013-10-28 07:12:00,
2013-10-28 02:22:00,-999.0,-99.9,-100.00,North,10,16.0,22.0,-999,-99.99,,,-99.99,,2013-10-28 07:22:00,
2013-10-28 02:32:00,-999.0,-99.9,-100.00,North,10,16.0,22.0,-999,-99.99,,,-99.99,,2013-10-28 07:32:00,
2013-10-28 02:42:00,-999.0,-99.9,-100.00,NNE,20,23.0,30.0,-999,-99.99,,,-99.99,,2013-10-28 07:42:00,
2013-10-28 02:52:00,-999.0,-99.9,-100.00,NNE,20,23.0,30.0,-999,-99.99,,,-99.99,,2013-10-28 07:52:00,
2013-10-28 03:12:00,-999.0,-99.9,-100.00,North,360,21.0,25.0,-999,-99.99,,,-99.99,,2013-10-28 08:12:00,
2013-10-28 03:22:00,-999.0,-99.9,-100.00,North,360,21.0,25.0,-999,-99.99,,,-99.99,,2013-10-28 08:22:00,
2013-10-28 03:32:00,-999.0,-99.9,-100.00,North,360,21.0,25.0,-999,-99.99,,,-99.99,,2013-10-28 08:32:00,
2013-10-28 03:42:00,-999.0,-99.9,-100.00,NNE,30,17.0,23.0,-999,-99.99,,,-99.99,,2013-10-28 08:42:00,
2013-10-28 03:52:00,-999.0,-99.9,-100.00,NNE,30,17.0,23.0,-999,-99.99,,,-99.99,,2013-10-28 08:52:00,
2013-10-28 04:02:00,-999.0,-99.9,-100.00,NNE,30,17.0,23.0,-999,-99.99,,,-99.99,,2013-10-28 09:02:00,
2013-10-28 04:12:00,-999.0,-99.9,-100.00,North,10,16.0,23.0,-999,-99.99,,,-99.99,,2013-10-28 09:12:00,
2013-10-28 04:22:00,-999.0,-99.9,-100.00,North,10,16.0,23.0,-999,-99.99,,,-99.99,,2013-10-28 09:22:00,
2013-10-28 04:33:00,-999.0,-99.9,-100.00,North,10,16.0,23.0,-999,-99.99,,,-99.99,,2013-10-28 09:33:00,
2013-10-28 04:44:00,-999.0,-99.9,-100.00,NE,40,15.0,22.0,-999,-99.99,,,-99.99,,2013-10-28 09:44:00,
2013-10-28 04:53:00,-999.0,-99.9,-100.00,NE,40,15.0,22.0,-999,-99.99,,,-99.99,,2013-10-28 09:53:00,
2013-10-28 05:03:00,-999.0,-99.9,-100.00,NE,40,15.0,22.0,-999,-99.99,,,-99.99,,2013-10-28 10:03:00,
2013-10-28 05:13:00,-999.0,-99.9,-100.00,NE,40,15.0,22.0,-999,-99.99,,,-99.99,,2013-10-28 10:13:00,
2013-10-28 05:43:00,-999.0,-99.9,-100.00,North,360,17.0,24.0,-999,-99.99,,,-99.99,,2013-10-28 10:43:00,
2013-10-28 05:53:00,-999.0,-99.9,-100.00,North,360,17.0,24.0,-999,-99.99,,,-99.99,,2013-10-28 10:53:00,
2013-10-28 06:03:00,-999.0,-99.9,-100.00,North,360,17.0,24.0,-999,-99.99,,,-99.99,,2013-10-28 11:03:00,
2013-10-28 06:12:00,-999.0,-99.9,-100.00,NE,40,14.0,18.0,-999,-99.99,,,-99.99,,2013-10-28 11:12:00,
2013-10-28 06:22:00,-999.0,-99.9,-100.00,NE,40,14.0,18.0,-999,-99.99,,,-99.99,,2013-10-28 11:22:00,
2013-10-28 06:33:00,-999.0,-99.9,-100.00,NE,40,14.0,18.0,-999,-99.99,,,-99.99,,2013-10-28 11:33:00,
2013-10-28 06:43:00,-999.0,-99.9,-100.00,North,360,18.0,26.0,-999,-99.99,,,-99.99,,2013-10-28 11:43:00,
2013-10-28 06:52:00,-999.0,-99.9,-100.00,North,360,18.0,26.0,-999,-99.99,,,-99.99,,2013-10-28 11:52:00,
2013-10-28 07:02:00,-999.0,-99.9,-100.00,North,360,18.0,26.0,-999,-99.99,,,-99.99,,2013-10-28 12:02:00,
2013-10-28 07:12:00,-999.0,-99.9,-100.00,NE,40,20.0,28.0,-999,-99.99,,,-99.99,,2013-10-28 12:12:00,
2013-10-28 07:22:00,-999.0,-99.9,-100.00,NE,40,20.0,28.0,-999,-99.99,,,-99.99,,2013-10-28 12:22:00,
2013-10-28 07:32:00,-999.0,-99.9,-100.00,NE,40,20.0,28.0,-999,-99.99,,,-99.99,,2013-10-28 12:32:00,
2013-10-28 07:42:00,-999.0,-99.9,-100.00,NNE,20,15.0,20.0,-999,-99.99,,,-99.99,,2013-10-28 12:42:00,
2013-10-28 07:52:00,-999.0,-99.9,-100.00,NNE,20,15.0,20.0,-999,-99.99,,,-99.99,,2013-10-28 12:52:00,
2013-10-28 08:02:00,-999.0,-99.9,-100.00,NNE,20,15.0,20.0,-999,-99.99,,,-99.99,,2013-10-28 13:02:00,
2013-10-28 08:11:00,-999.0,-99.9,-100.00,North,10,13.0,17.0,-999,-99.99,,,-99.99,,2013-10-28 13:11:00,
2013-10-28 08:22:00,-999.0,-99.9,-100.00,North,10,13.0,17.0,-999,-99.99,,,-99.99,,2013-10-28 13:22:00,
2013-10-28 08:32:00,-999.0,-99.9,-100.00,North,10,13.0,17.0,-999,-99.99,,,-99.99,,2013-10-28 13:32:00,
2013-10-28 08:42:00,-999.0,-99.9,-100.00,NNE,30,14.0,20.0,-999,-99.99,,,-99.99,,2013-10-28 13:42:00,
2013-10-28 08:52:00,-999.0,-99.9,-100.00,NNE,30,14.0,20.0,-999,-99.99,,,-99.99,,2013-10-28 13:52:00,
2013-10-28 09:00:00,-999.0,-99.9,-100.00,North,360,17.0,23.0,-999,-99.99,,,-99.99,,2013-10-28 14:00:00,
2013-10-28 09:02:00,-999.0,-99.9,-100.00,NNE,30,14.0,20.0,-999,-99.99,,,-99.99,,2013-10-28 14:02:00,
2013-10-28 09:11:00,-999.0,-99.9,-100.00,NNE,30,14.0,20.0,-999,-99.99,,,-99.99,,2013-10-28 14:11:00,
2013-10-28 09:22:00,-999.0,-99.9,-100.00,NE,40,13.0,18.0,-999,-99.99,,,-99.99,,2013-10-28 14:22:00,
2013-10-28 09:30:00,-999.0,-99.9,-100.00,North,10,16.0,22.0,-999,-99.99,,,-99.99,,2013-10-28 14:30:00,
2013-10-28 09:32:00,-999.0,-99.9,-100.00,NE,40,13.0,18.0,-999,-99.99,,,-99.99,,2013-10-28 14:32:00,
2013-10-28 09:42:00,-999.0,-99.9,-100.00,North,360,17.0,23.0,-999,-99.99,,,-99.99,,2013-10-28 14:42:00,
2013-10-28 09:52:00,-999.0,-99.9,-100.00,North,360,17.0,23.0,-999,-99.99,,,-99.99,,2013-10-28 14:52:00,
2013-10-28 10:11:00,-999.0,-99.9,-100.00,North,10,16.0,22.0,-999,-99.99,,,-99.99,,2013-10-28 15:11:00,
2013-10-28 10:22:00,-999.0,-99.9,-100.00,North,10,16.0,22.0,-999,-99.99,,,-99.99,,2013-10-28 15:22:00,
2013-10-28 10:53:00,-999.0,-99.9,-100.00,North,360,16.0,23.0,-999,-99.99,,,-99.99,,2013-10-28 15:53:00,
2013-10-28 11:03:00,-999.0,-99.9,-100.00,North,360,16.0,23.0,-999,-99.99,,,-99.99,,2013-10-28 16:03:00,
2013-10-28 11:13:00,-999.0,-99.9,-100.00,North,350,17.0,23.0,-999,-99.99,,,-99.99,,2013-10-28 16:13:00,
2013-10-28 11:23:00,-999.0,-99.9,-100.00,North,350,17.0,23.0,-999,-99.99,,,-99.99,,2013-10-28 16:23:00,
2013-10-28 11:30:00,-999.0,-99.9,-100.00,ENE,60,20.0,28.0,-999,-99.99,,,-99.99,,2013-10-28 16:30:00,
2013-10-28 11:33:00,-999.0,-99.9,-100.00,North,350,17.0,23.0,-999,-99.99,,,-99.99,,2013-10-28 16:33:00,
2013-10-28 11:43:00,-999.0,-99.9,-100.00,North,350,17.0,23.0,-999,-99.99,,,-99.99,,2013-10-28 16:43:00,
2013-10-28 12:12:00,-999.0,-99.9,-100.00,ENE,60,20.0,28.0,-999,-99.99,,,-99.99,,2013-10-28 17:12:00,
2013-10-28 12:23:00,-999.0,-99.9,-100.00,ENE,60,20.0,28.0,-999,-99.99,,,-99.99,,2013-10-28 17:23:00,
2013-10-28 12:42:00,-999.0,-99.9,-100.00,NNE,20,17.0,23.0,-999,-99.99,,,-99.99,,2013-10-28 17:42:00,
2013-10-28 12:52:00,-999.0,-99.9,-100.00,NNE,20,17.0,23.0,-999,-99.99,,,-99.99,,2013-10-28 17:52:00,
2013-10-28 13:02:00,-999.0,-99.9,-100.00,NNE,20,17.0,23.0,-999,-99.99,,,-99.99,,2013-10-28 18:02:00,
2013-10-28 13:12:00,-999.0,-99.9,-100.00,East,80,20.0,32.0,-999,-99.99,,,-99.99,,2013-10-28 18:12:00,
2013-10-28 13:22:00,-999.0,-99.9,-100.00,East,80,20.0,32.0,-999,-99.99,,,-99.99,,2013-10-28 18:22:00,
2013-10-28 13:32:00,-999.0,-99.9,-100.00,East,80,20.0,32.0,-999,-99.99,,,-99.99,,2013-10-28 18:32:00,
2013-10-28 13:42:00,-999.0,-99.9,-100.00,NE,40,20.0,26.0,-999,-99.99,,,-99.99,,2013-10-28 18:42:00,
2013-10-28 13:52:00,-999.0,-99.9,-100.00,NE,40,20.0,26.0,-999,-99.99,,,-99.99,,2013-10-28 18:52:00,
2013-10-28 14:02:00,-999.0,-99.9,-100.00,NE,40,20.0,26.0,-999,-99.99,,,-99.99,,2013-10-28 19:02:00,
2013-10-28 14:11:00,-999.0,-99.9,-100.00,East,80,21.0,29.0,-999,-99.99,,,-99.99,,2013-10-28 19:11:00,
2013-10-28 14:22:00,-999.0,-99.9,-100.00,East,80,21.0,29.0,-999,-99.99,,,-99.99,,2013-10-28 19:22:00,
2013-10-28 14:33:00,-999.0,-99.9,-100.00,East,80,21.0,29.0,-999,-99.99,,,-99.99,,2013-10-28 19:33:00,
2013-10-28 14:42:00,-999.0,-99.9,-100.00,ENE,70,20.0,28.0,-999,-99.99,,,-99.99,,2013-10-28 19:42:00,
2013-10-28 14:53:00,-999.0,-99.9,-100.00,ENE,70,20.0,28.0,-999,-99.99,,,-99.99,,2013-10-28 19:53:00,
2013-10-28 15:02:00,-999.0,-99.9,-100.00,ENE,70,20.0,28.0,-999,-99.99,,,-99.99,,2013-10-28 20:02:00,
2013-10-28 15:12:00,-999.0,-99.9,-100.00,ENE,60,22.0,30.0,-999,-99.99,,,-99.99,,2013-10-28 20:12:00,
2013-10-28 15:22:00,-999.0,-99.9,-100.00,ENE,60,22.0,30.0,-999,-99.99,,,-99.99,,2013-10-28 20:22:00,
2013-10-28 15:32:00,-999.0,-99.9,-100.00,ENE,60,22.0,30.0,-999,-99.99,,,-99.99,,2013-10-28 20:32:00,
2013-10-28 15:42:00,-999.0,-99.9,-100.00,NE,50,22.0,34.0,-999,-99.99,,,-99.99,,2013-10-28 20:42:00,
2013-10-28 15:52:00,-999.0,-99.9,-100.00,NE,50,22.0,34.0,-999,-99.99,,,-99.99,,2013-10-28 20:52:00,
2013-10-28 16:00:00,-999.0,-99.9,-100.00,ENE,60,14.0,22.0,-999,-99.99,,,-99.99,,2013-10-28 21:00:00,
2013-10-28 16:02:00,-999.0,-99.9,-100.00,NE,50,22.0,34.0,-999,-99.99,,,-99.99,,2013-10-28 21:02:00,
2013-10-28 16:11:00,-999.0,-99.9,-100.00,NE,50,16.0,20.0,-999,-99.99,,,-99.99,,2013-10-28 21:11:00,
2013-10-28 16:22:00,-999.0,-99.9,-100.00,NE,50,16.0,20.0,-999,-99.99,,,-99.99,,2013-10-28 21:22:00,
2013-10-28 16:34:00,-999.0,-99.9,-100.00,NE,50,16.0,20.0,-999,-99.99,,,-99.99,,2013-10-28 21:34:00,
2013-10-28 16:43:00,-999.0,-99.9,-100.00,ENE,60,14.0,22.0,-999,-99.99,,,-99.99,,2013-10-28 21:43:00,
2013-10-28 16:54:00,-999.0,-99.9,-100.00,ENE,60,14.0,22.0,-999,-99.99,,,-99.99,,2013-10-28 21:54:00,
2013-10-28 17:13:00,-999.0,-99.9,-100.00,East,80,14.0,17.0,-999,-99.99,,,-99.99,,2013-10-28 22:13:00,
2013-10-28 17:24:00,-999.0,-99.9,-100.00,East,80,14.0,17.0,-999,-99.99,,,-99.99,,2013-10-28 22:24:00,
2013-10-28 17:34:00,-999.0,-99.9,-100.00,East,80,14.0,17.0,-999,-99.99,,,-99.99,,2013-10-28 22:34:00,
2013-10-28 17:43:00,-999.0,-99.9,-100.00,NE,50,13.0,18.0,-999,-99.99,,,-99.99,,2013-10-28 22:43:00,
2013-10-28 17:53:00,-999.0,-99.9,-100.00,NE,50,13.0,18.0,-999,-99.99,,,-99.99,,2013-10-28 22:53:00,
2013-10-28 18:03:00,-999.0,-99.9,-100.00,NE,50,13.0,18.0,-999,-99.99,,,-99.99,,2013-10-28 23:03:00,
2013-10-28 18:12:00,-999.0,-99.9,-100.00,NNE,30,9.0,11.0,-999,-99.99,,,-99.99,,2013-10-28 23:12:00,
2013-10-28 18:22:00,-999.0,-99.9,-100.00,NNE,30,9.0,11.0,-999,-99.99,,,-99.99,,2013-10-28 23:22:00,
2013-10-28 18:34:00,-999.0,-99.9,-100.00,NNE,30,9.0,11.0,-999,-99.99,,,-99.99,,2013-10-28 23:34:00,
2013-10-28 18:43:00,-999.0,-99.9,-100.00,NNW,340,9.0,11.0,-999,-99.99,,,-99.99,,2013-10-28 23:43:00,
2013-10-28 18:53:00,-999.0,-99.9,-100.00,NNW,340,9.0,11.0,-999,-99.99,,,-99.99,,2013-10-28 23:53:00,
2013-10-28 19:01:00,-999.0,-99.9,-100.00,NNW,340,9.0,11.0,-999,-99.99,,,-99.99,,2013-10-29 00:01:00,
2013-10-28 19:12:00,-999.0,-99.9,-100.00,North,360,9.0,10.0,-999,-99.99,,,-99.99,,2013-10-29 00:12:00,
2013-10-28 19:22:00,-999.0,-99.9,-100.00,North,360,9.0,10.0,-999,-99.99,,,-99.99,,2013-10-29 00:22:00,
2013-10-28 19:32:00,-999.0,-99.9,-100.00,North,360,9.0,10.0,-999,-99.99,,,-99.99,,2013-10-29 00:32:00,
2013-10-28 19:42:00,-999.0,-99.9,-100.00,North,350,8.0,10.0,-999,-99.99,,,-99.99,,2013-10-29 00:42:00,
2013-10-28 19:52:00,-999.0,-99.9,-100.00,North,350,8.0,10.0,-999,-99.99,,,-99.99,,2013-10-29 00:52:00,
2013-10-28 20:01:00,-999.0,-99.9,-100.00,North,350,8.0,10.0,-999,-99.99,,,-99.99,,2013-10-29 01:01:00,
2013-10-28 20:11:00,-999.0,-99.9,-100.00,North,350,8.0,10.0,-999,-99.99,,,-99.99,,2013-10-29 01:11:00,
2013-10-28 20:22:00,-999.0,-99.9,-100.00,North,350,8.0,10.0,-999,-99.99,,,-99.99,,2013-10-29 01:22:00,
2013-10-28 20:30:00,-999.0,-99.9,-100.00,North,360,8.0,10.0,-999,-99.99,,,-99.99,,2013-10-29 01:30:00,
2013-10-28 20:32:00,-999.0,-99.9,-100.00,North,350,8.0,10.0,-999,-99.99,,,-99.99,,2013-10-29 01:32:00,
2013-10-28 20:42:00,-999.0,-99.9,-100.00,North,360,9.0,11.0,-999,-99.99,,,-99.99,,2013-10-29 01:42:00,
2013-10-28 20:53:00,-999.0,-99.9,-100.00,North,360,9.0,11.0,-999,-99.99,,,-99.99,,2013-10-29 01:53:00,
2013-10-28 21:02:00,-999.0,-99.9,-100.00,North,360,9.0,11.0,-999,-99.99,,,-99.99,,2013-10-29 02:02:00,
2013-10-28 21:11:00,-999.0,-99.9,-100.00,North,360,8.0,10.0,-999,-99.99,,,-99.99,,2013-10-29 02:11:00,
2013-10-28 21:22:00,-999.0,-99.9,-100.00,North,360,8.0,10.0,-999,-99.99,,,-99.99,,2013-10-29 02:22:00,
2013-10-28 21:44:00,-999.0,-99.9,-100.00,NNE,20,8.0,10.0,-999,-99.99,,,-99.99,,2013-10-29 02:44:00,
2013-10-28 21:54:00,-999.0,-99.9,-100.00,NNE,20,8.0,10.0,-999,-99.99,,,-99.99,,2013-10-29 02:54:00,
2013-10-28 22:03:00,-999.0,-99.9,-100.00,NNE,20,8.0,10.0,-999,-99.99,,,-99.99,,2013-10-29 03:03:00,
2013-10-28 22:15:00,-999.0,-99.9,-100.00,North,10,11.0,15.0,-999,-99.99,,,-99.99,,2013-10-29 03:15:00,
2013-10-28 22:27:00,-999.0,-99.9,-100.00,North,10,11.0,15.0,-999,-99.99,,,-99.99,,2013-10-29 03:27:00,
2013-10-28 22:40:00,-999.0,-99.9,-100.00,North,10,11.0,15.0,-999,-99.99,,,-99.99,,2013-10-29 03:40:00,
2013-10-28 22:48:00,-999.0,-99.9,-100.00,North,10,9.0,13.0,-999,-99.99,,,-99.99,,2013-10-29 03:48:00,
2013-10-28 22:56:00,-999.0,-99.9,-100.00,North,10,9.0,13.0,-999,-99.99,,,-99.99,,2013-10-29 03:56:00,
2013-10-28 23:00:00,-999.0,-99.9,-100.00,North,360,9.0,11.0,-999,-99.99,,,-99.99,,2013-10-29 04:00:00,
2013-10-28 23:04:00,-999.0,-99.9,-100.00,North,10,9.0,13.0,-999,-99.99,,,-99.99,,2013-10-29 04:04:00,
2013-10-28 23:14:00,-999.0,-99.9,-100.00,North,10,9.0,11.0,-999,-99.99,,,-99.99,,2013-10-29 04:14:00,
2013-10-28 23:24:00,-999.0,-99.9,-100.00,North,10,9.0,11.0,-999,-99.99,,,-99.99,,2013-10-29 04:24:00,
2013-10-28 23:39:00,-999.0,-99.9,-100.00,North,10,9.0,11.0,-999,-99.99,,,-99.99,,2013-10-29 04:39:00,
2013-10-28 23:58:00,-999.0,-99.9,-100.00,North,360,9.0,11.0,-999,-99.99,,,-99.99,,2013-10-29 04:58:00,